Location: Lafig�re
(44.4503°N, 4.0357°E)
Time: 15:34:55
(UTC+00:00)

DMSP B5D2-2 - Pass Details

Date: 24 September 2020
Orbit: 790 x 806 km, 98.3° (Epoch: 25 October)

Event Time Altitude Azimuth Distance (km) Brightness Sun altitude
Rises 19:16:26 0° 17° (NNE) 3,332 7.3 -18.3°
Reaches altitude 10° 19:18:49 10° 21° (NNE) 2,396 6.5 -18.7°
Maximum altitude 19:24:03 58° 100° (E) 939 4.1 -19.6°
Drops below altitude 10° 19:29:13 10° 180° (S) 2,374 6.3 -20.5°
Sets 19:31:34 0° 184° (S) 3,298 7.1 -20.9°
